FW2977 Weather Reports


Display with metric or nautical units.
time (UTC)temp
F
wind
direction
speed
MPH
gust
MPH
rain 1hr
in
rain 24hr
in
rain mn
in
humidity
%
barometer
mb
20260902134548 68 74 6.0 10.0 0.00 0.35 0.00 98 965.7
20260902133047 69 67 5.0 12.0 0.00 0.35 0.00 98 965.3
20260902131543 69 94 8.0 13.0 0.00 0.35 0.00 98 965.3
20260902130042 69 80 4.0 10.0 0.00 0.35 0.00 98 965.1
20260902124548 69 84 5.0 13.0 0.00 0.68 0.00 98 965.1
20260902123043 69 68 7.0 12.0 0.00 0.68 0.00 98 965.0
20260902121538 69 80 6.0 13.0 0.00 0.68 0.00 98 964.8
20260902120035 69 73 7.0 13.0 0.00 0.68 0.00 98 964.6
20260902114537 69 111 8.0 14.0 0.00 0.75 0.00 98 964.5
20260902113030 69 101 8.0 13.0 0.00 0.75 0.00 98 964.4
20260902111538 69 105 7.0 13.0 0.00 0.75 0.00 98 964.3
20260902110025 69 132 6.0 13.0 0.00 0.75 0.00 98 964.3
20260902104537 69 88 6.0 12.0 0.00 0.75 0.00 98 964.4
20260902103023 69 52 6.0 12.0 0.00 0.75 0.00 98 964.5
20260902101522 69 60 6.0 12.0 0.00 0.75 0.00 97 964.6
20260902100030 69 76 7.0 12.0 0.00 0.75 0.00 97 964.5
20260902094523 69 83 4.0 10.0 0.00 0.75 0.00 97 964.5
20260902093020 69 130 4.0 9.0 0.00 0.75 0.00 97 964.5
20260902091526 69 72 3.0 8.0 0.00 0.75 0.00 97 964.5
20260902090017 69 115 4.0 9.0 0.00 0.75 0.00 97 964.6
20260902084516 69 82 4.0 8.0 0.00 0.76 0.00 97 964.6
20260902083016 69 96 2.0 7.0 0.00 0.76 0.00 97 964.5
20260902081517 69 78 4.0 9.0 0.00 0.76 0.00 97 964.4
20260902080012 69 77 4.0 9.0 0.00 0.77 0.00 97 964.4
20260902074511 69 102 4.0 9.0 0.00 0.77 0.00 97 964.5
20260902073012 69 94 4.0 8.0 0.00 0.77 0.00 97 964.3
20260902071512 69 88 3.0 8.0 0.00 0.77 0.00 97 964.3
20260902070008 69 102 1.0 3.0 0.00 0.77 0.00 97 964.4
20260902064507 69 89 0.0 3.0 0.00 0.77 0.00 97 964.5
20260902063012 69 82 2.0 4.0 0.00 0.77 0.00 96 964.5
20260902061506 69 161 0.0 0.0 0.00 0.77 0.00 97 964.5
20260902060014 69 83 0.0 3.0 0.00 0.77 0.00 96 964.6
20260902054510 69 83 0.0 1.0 0.00 0.77 0.00 96 964.5
20260902053004 69 83 1.0 3.0 0.00 0.77 0.00 96 964.5
20260902051502 69 83 1.0 3.0 0.00 0.77 0.00 96 964.5
20260902050002 69 49 2.0 4.0 0.00 0.77 0.00 96 964.3
20260902044600 69 92 1.0 3.0 0.00 0.77 0.00 96 964.4
20260902043058 70 109 2.0 4.0 0.00 0.77 0.00 96 964.2
20260902041606 70 114 0.0 2.0 0.00 0.77 0.00 95 964.2
20260902040053 70 114 1.0 3.0 0.00 0.77 0.00 94 964.1
20260902034555 71 109 1.0 3.0 0.00 0.77 0.77 94 964.0
20260902033105 71 38 0.0 2.0 0.00 0.77 0.77 94 963.8
20260902031552 71 38 0.0 1.0 0.00 0.77 0.77 94 963.8
20260902030051 71 39 0.0 1.0 0.00 0.77 0.77 94 963.8
20260902024550 72 82 0.0 3.0 0.00 0.77 0.77 93 963.8
20260902023050 72 82 0.0 0.0 0.00 0.77 0.77 93 963.8
20260902021608 72 82 0.0 0.0 0.00 0.77 0.77 92 963.8
20260902020055 72 82 0.0 0.0 0.00 0.77 0.77 92 963.8
20260902014548 72 82 0.0 0.0 0.00 0.87 0.77 92 963.9
20260902013048 72 82 0.0 0.0 0.00 0.87 0.77 92 963.5
20260902011549 72 82 0.0 0.0 0.00 0.87 0.77 92 963.5
20260902010057 72 82 0.0 0.0 0.00 0.87 0.77 91 963.1
20260902004548 73 82 0.0 2.0 0.00 0.90 0.77 91 963.0
20260902003045 73 82 0.0 3.0 0.00 0.90 0.77 91 962.8
20260902001545 73 82 0.0 1.0 0.00 0.90 0.77 92 962.6
20260902000053 73 82 0.0 0.0 0.00 0.90 0.77 91 962.6
20260901234606 73 82 0.0 0.0 0.00 0.90 0.77 91 962.7
20260901233043 73 82 0.0 0.0 0.00 0.90 0.77 91 962.6
20260901231549 73 82 0.0 2.0 0.00 0.90 0.77 91 962.3
20260901230112 74 82 0.0 1.0 0.00 0.90 0.77 91 962.4
20260901224541 75 82 0.0 2.0 0.00 0.91 0.77 91 962.5
20260901223104 75 82 0.0 2.0 0.00 0.91 0.77 91 962.2
20260901221540 75 82 0.0 3.0 0.00 0.91 0.77 91 962.3
20260901220038 75 117 0.0 1.0 0.00 0.91 0.77 92 962.3
20260901214537 75 117 0.0 1.0 0.00 0.93 0.77 93 962.3
20260901213044 74 117 0.0 2.0 0.00 0.93 0.77 93 962.1
20260901211548 75 117 0.0 2.0 0.00 0.93 0.77 93 962.0
20260901210037 75 168 0.0 0.0 0.00 0.93 0.77 94 961.9
20260901204543 75 168 0.0 0.0 0.00 0.96 0.77 94 962.2
20260901203032 74 168 0.0 0.0 0.00 0.96 0.77 93 962.3
20260901201531 74 168 0.0 0.0 0.00 0.96 0.77 94 962.3
20260901200048 74 168 0.0 0.0 0.00 0.96 0.77 94 962.4
20260901194536 74 168 0.0 0.0 0.00 1.00 0.77 94 962.4
20260901193030 74 168 0.0 0.0 0.00 1.00 0.77 94 962.4
20260901191530 73 167 0.0 0.0 0.00 1.00 0.77 95 962.5
20260901190029 73 168 0.0 0.0 0.00 1.00 0.77 95 962.5
20260901184523 72 168 0.0 0.0 0.00 1.00 0.77 95 962.4
20260901183036 72 168 0.0 0.0 0.00 1.00 0.77 96 962.3
20260901181521 72 168 0.0 0.0 0.00 1.00 0.77 96 962.1
20260901180020 72 168 0.0 3.0 0.00 1.00 0.77 97 962.1
20260901174517 71 166 1.0 4.0 0.00 1.07 0.77 97 962.0
20260901173016 71 192 0.0 4.0 0.00 1.07 0.77 97 962.1
20260901171514 71 166 0.0 4.0 0.00 1.07 0.77 97 962.0
20260901170012 71 169 0.0 4.0 0.00 1.22 0.77 98 962.0
20260901164510 70 134 2.0 4.0 0.00 1.22 0.77 98 962.1
20260901163110 70 109 2.0 7.0 0.00 1.22 0.77 98 962.1
20260901161507 69 86 4.0 8.0 0.00 1.22 0.77 98 962.1
20260901160005 69 94 3.0 6.0 0.00 1.22 0.77 98 962.3
20260901154504 69 117 2.0 6.0 0.01 1.22 0.77 98 962.4
20260901153002 69 124 1.0 3.0 0.02 1.22 0.77 98 962.4
20260901151558 68 132 1.0 4.0 0.02 1.22 0.77 98 962.6
20260901150054 68 119 2.0 6.0 0.08 1.22 0.77 98 962.5
20260901144551 68 130 3.0 4.0 0.08 1.21 0.76 98 962.5
20260901143051 68 161 2.0 5.0 0.23 1.20 0.75 98 962.4
20260901141557 67 137 2.0 7.0 0.31 1.20 0.75 98 962.5
20260901140052 67 168 2.0 5.0 0.26 1.13 0.69 98 962.4